| time (UTC) | temp C | wind direction | speed KPH | gust KPH | rain 1hr cm | rain 24hr cm | rain mn cm | humidity % | barometer mb |
| 20260905234820 | 10 | 252 | 1.6 | 3.2 | 0.00 | 0.00 | 0.00 | 88 | 1023.3 |
| 20260905234320 | 11 | 252 | 1.6 | 1.6 | 0.00 | 0.00 | 0.00 | 88 | 1023.3 |
| 20260905233820 | 11 | 252 | 1.6 | 1.6 | 0.00 | 0.00 | 0.00 | 87 | 1023.3 |
| 20260905232821 | 11 | 252 | 0.0 | 0.0 | 0.00 | 0.00 | 0.00 | 87 | 1023.5 |
| 20260905232319 | 11 | 252 | 0.0 | 1.6 | 0.00 | 0.00 | 0.00 | 87 | 1023.5 |
| 20260905231820 | 11 | 252 | 1.6 | 1.6 | 0.00 | 0.00 | 0.00 | 87 | 1023.5 |
| 20260905230903 | 11 | 252 | 1.6 | 1.6 | 0.00 | 0.00 | 0.00 | 87 | 1023.4 |
| 20260905230320 | 11 | 252 | 1.6 | 3.2 | 0.00 | 0.00 | 0.00 | 87 | 1023.4 |
| 20260905225820 | 11 | 252 | 1.6 | 3.2 | 0.00 | 0.00 | 0.00 | 86 | 1023.4 |
| 20260905225320 | 11 | 252 | 1.6 | 1.6 | 0.00 | 0.00 | 0.00 | 86 | 1023.3 |
| 20260905224822 | 11 | 252 | 1.6 | 1.6 | 0.00 | 0.00 | 0.00 | 86 | 1023.3 |
| 20260905224320 | 11 | 252 | 1.6 | 1.6 | 0.00 | 0.00 | 0.00 | 86 | 1023.3 |
| 20260905223820 | 11 | 252 | 1.6 | 1.6 | 0.00 | 0.00 | 0.00 | 86 | 1023.3 |
| 20260905223320 | 12 | 252 | 1.6 | 1.6 | 0.00 | 0.00 | 0.00 | 86 | 1023.2 |
| 20260905222820 | 12 | 252 | 1.6 | 1.6 | 0.00 | 0.00 | 0.00 | 86 | 1023.2 |
| 20260905222320 | 12 | 252 | 1.6 | 3.2 | 0.00 | 0.00 | 0.00 | 86 | 1023.3 |
| 20260905221821 | 12 | 252 | 1.6 | 1.6 | 0.00 | 0.00 | 0.00 | 86 | 1023.3 |
| 20260905221320 | 12 | 252 | 1.6 | 3.2 | 0.00 | 0.00 | 0.00 | 85 | 1023.3 |
| 20260905220820 | 12 | 252 | 0.0 | 3.2 | 0.00 | 0.00 | 0.00 | 86 | 1023.3 |
| 20260905220320 | 12 | 252 | 0.0 | 3.2 | 0.00 | 0.00 | 0.00 | 86 | 1023.3 |
| 20260905215821 | 12 | 252 | 0.0 | 3.2 | 0.00 | 0.00 | 0.00 | 85 | 1023.3 |
| 20260905215320 | 12 | 252 | 0.0 | 1.6 | 0.00 | 0.00 | 0.00 | 85 | 1023.3 |
| 20260905214821 | 12 | 252 | 1.6 | 1.6 | 0.00 | 0.00 | 0.00 | 85 | 1023.3 |
| 20260905214320 | 12 | 252 | 1.6 | 1.6 | 0.00 | 0.00 | 0.00 | 85 | 1023.4 |
| 20260905213819 | 12 | 252 | 1.6 | 1.6 | 0.00 | 0.00 | 0.00 | 84 | 1023.4 |
| 20260905213320 | 12 | 252 | 0.0 | 3.2 | 0.00 | 0.00 | 0.00 | 84 | 1023.5 |
| 20260905212821 | 12 | 252 | 0.0 | 1.6 | 0.00 | 0.00 | 0.00 | 84 | 1023.5 |
| 20260905212320 | 12 | 252 | 1.6 | 3.2 | 0.00 | 0.00 | 0.00 | 83 | 1023.5 |
| 20260905211822 | 12 | 252 | 0.0 | 3.2 | 0.00 | 0.00 | 0.00 | 83 | 1023.4 |
| 20260905210820 | 12 | 252 | 0.0 | 3.2 | 0.00 | 0.00 | 0.00 | 83 | 1023.6 |
| 20260905210320 | 12 | 252 | 0.0 | 1.6 | 0.00 | 0.00 | 0.00 | 82 | 1023.6 |
| 20260905205820 | 13 | 252 | 0.0 | 3.2 | 0.00 | 0.00 | 0.00 | 82 | 1023.6 |
| 20260905204820 | 13 | 252 | 1.6 | 3.2 | 0.00 | 0.00 | 0.00 | 82 | 1023.6 |
| 20260905204320 | 13 | 252 | 1.6 | 3.2 | 0.00 | 0.00 | 0.00 | 81 | 1023.6 |
| 20260905203320 | 13 | 252 | 0.0 | 3.2 | 0.00 | 0.00 | 0.00 | 81 | 1023.5 |
| 20260905202820 | 13 | 252 | 0.0 | 3.2 | 0.00 | 0.00 | 0.00 | 81 | 1023.4 |
| 20260905202320 | 13 | 252 | 1.6 | 3.2 | 0.00 | 0.00 | 0.00 | 81 | 1023.4 |
| 20260905201320 | 13 | 252 | 0.0 | 3.2 | 0.00 | 0.00 | 0.00 | 81 | 1023.4 |
| 20260905200820 | 13 | 252 | 0.0 | 1.6 | 0.00 | 0.00 | 0.00 | 81 | 1023.4 |
| 20260905200319 | 13 | 252 | 0.0 | 0.0 | 0.00 | 0.00 | 0.00 | 81 | 1023.3 |
| 20260905195820 | 13 | 252 | 0.0 | 0.0 | 0.00 | 0.00 | 0.00 | 81 | 1023.3 |
| 20260905195320 | 13 | 252 | 0.0 | 3.2 | 0.00 | 0.00 | 0.00 | 81 | 1023.3 |
| 20260905194820 | 13 | 252 | 0.0 | 1.6 | 0.00 | 0.00 | 0.00 | 80 | 1023.3 |
| 20260905193820 | 13 | 252 | 0.0 | 0.0 | 0.00 | 0.00 | 0.00 | 78 | 1023.3 |
| 20260905193320 | 13 | 252 | 0.0 | 3.2 | 0.00 | 0.00 | 0.00 | 78 | 1023.2 |
| 20260905191820 | 14 | 252 | 1.6 | 1.6 | 0.00 | 0.00 | 0.00 | 77 | 1022.9 |
| 20260905190320 | 14 | 252 | 0.0 | 3.2 | 0.00 | 0.00 | 0.00 | 76 | 1022.7 |
| 20260905185820 | 14 | 252 | 1.6 | 4.8 | 0.00 | 0.00 | 0.00 | 75 | 1022.9 |
| 20260905185320 | 15 | 252 | 1.6 | 4.8 | 0.00 | 0.00 | 0.00 | 75 | 1022.9 |
| 20260905184820 | 15 | 252 | 1.6 | 3.2 | 0.00 | 0.00 | 0.00 | 74 | 1022.8 |
| 20260905184320 | 15 | 252 | 3.2 | 4.8 | 0.00 | 0.00 | 0.00 | 74 | 1023.0 |
| 20260905183819 | 15 | 252 | 1.6 | 8.0 | 0.00 | 0.00 | 0.00 | 74 | 1023.0 |
| 20260905183320 | 15 | 253 | 1.6 | 4.8 | 0.00 | 0.00 | 0.00 | 73 | 1023.0 |
| 20260905182820 | 15 | 253 | 3.2 | 4.8 | 0.00 | 0.00 | 0.00 | 73 | 1023.0 |
| 20260905182320 | 15 | 250 | 1.6 | 4.8 | 0.00 | 0.00 | 0.00 | 72 | 1022.9 |
| 20260905181819 | 15 | 264 | 1.6 | 8.0 | 0.00 | 0.00 | 0.00 | 72 | 1022.8 |
| 20260905181319 | 15 | 264 | 1.6 | 4.8 | 0.00 | 0.00 | 0.00 | 72 | 1022.8 |
| 20260905180822 | 15 | 273 | 1.6 | 3.2 | 0.00 | 0.00 | 0.00 | 71 | 1022.8 |
| 20260905180320 | 15 | 282 | 1.6 | 4.8 | 0.00 | 0.00 | 0.00 | 71 | 1023.0 |
| 20260905175820 | 15 | 256 | 3.2 | 4.8 | 0.00 | 0.00 | 0.00 | 71 | 1023.1 |
| 20260905175320 | 15 | 251 | 3.2 | 11.3 | 0.00 | 0.00 | 0.00 | 70 | 1023.2 |
| 20260905174819 | 15 | 252 | 4.8 | 12.9 | 0.00 | 0.00 | 0.00 | 70 | 1023.0 |
| 20260905174320 | 15 | 261 | 4.8 | 12.9 | 0.00 | 0.00 | 0.00 | 69 | 1023.0 |
| 20260905173820 | 15 | 260 | 3.2 | 9.7 | 0.00 | 0.00 | 0.00 | 69 | 1023.0 |
| 20260905173319 | 15 | 280 | 4.8 | 9.7 | 0.00 | 0.00 | 0.00 | 69 | 1023.0 |
| 20260905172820 | 15 | 247 | 4.8 | 9.7 | 0.00 | 0.00 | 0.00 | 69 | 1022.9 |
| 20260905171820 | 16 | 252 | 6.4 | 11.3 | 0.00 | 0.00 | 0.00 | 68 | 1023.0 |
| 20260905171319 | 16 | 252 | 4.8 | 9.7 | 0.00 | 0.00 | 0.00 | 69 | 1023.0 |
| 20260905170819 | 16 | 236 | 3.2 | 8.0 | 0.00 | 0.00 | 0.00 | 68 | 1022.8 |
| 20260905170319 | 16 | 242 | 4.8 | 11.3 | 0.00 | 0.00 | 0.00 | 67 | 1022.9 |
| 20260905165820 | 16 | 266 | 6.4 | 12.9 | 0.00 | 0.00 | 0.00 | 66 | 1022.9 |
| 20260905165319 | 16 | 270 | 4.8 | 11.3 | 0.00 | 0.00 | 0.00 | 65 | 1022.9 |
| 20260905164820 | 16 | 240 | 4.8 | 11.3 | 0.00 | 0.00 | 0.00 | 65 | 1022.9 |
| 20260905164320 | 16 | 245 | 3.2 | 11.3 | 0.00 | 0.00 | 0.00 | 64 | 1022.8 |
| 20260905163819 | 17 | 254 | 6.4 | 12.9 | 0.00 | 0.00 | 0.00 | 64 | 1022.7 |
| 20260905163319 | 17 | 246 | 8.0 | 14.5 | 0.00 | 0.00 | 0.00 | 66 | 1022.7 |
| 20260905162821 | 16 | 250 | 4.8 | 11.3 | 0.00 | 0.00 | 0.00 | 67 | 1022.6 |
| 20260905162319 | 16 | 243 | 9.7 | 14.5 | 0.00 | 0.00 | 0.00 | 66 | 1022.6 |
| 20260905161820 | 16 | 239 | 4.8 | 11.3 | 0.00 | 0.00 | 0.00 | 66 | 1022.6 |
| 20260905161321 | 17 | 240 | 8.0 | 14.5 | 0.00 | 0.00 | 0.00 | 65 | 1022.5 |
| 20260905160819 | 16 | 250 | 8.0 | 19.3 | 0.00 | 0.00 | 0.00 | 66 | 1022.5 |
| 20260905160320 | 16 | 251 | 9.7 | 19.3 | 0.00 | 0.00 | 0.00 | 67 | 1022.4 |
| 20260905155820 | 16 | 252 | 9.7 | 16.1 | 0.00 | 0.00 | 0.00 | 66 | 1022.4 |
| 20260905155319 | 17 | 251 | 6.4 | 14.5 | 0.00 | 0.00 | 0.00 | 64 | 1022.4 |
| 20260905154820 | 17 | 249 | 9.7 | 19.3 | 0.00 | 0.00 | 0.00 | 63 | 1022.4 |
| 20260905154320 | 17 | 243 | 6.4 | 14.5 | 0.00 | 0.00 | 0.00 | 66 | 1022.3 |
| 20260905153819 | 16 | 243 | 6.4 | 14.5 | 0.00 | 0.00 | 0.00 | 67 | 1022.2 |
| 20260905153320 | 16 | 241 | 8.0 | 14.5 | 0.00 | 0.00 | 0.00 | 69 | 1022.4 |
| 20260905152820 | 16 | 257 | 8.0 | 14.5 | 0.00 | 0.00 | 0.00 | 69 | 1022.2 |
| 20260905152320 | 16 | 257 | 6.4 | 14.5 | 0.00 | 0.00 | 0.00 | 71 | 1022.1 |
| 20260905151820 | 16 | 242 | 8.0 | 22.5 | 0.00 | 0.00 | 0.00 | 71 | 1022.0 |
| 20260905150820 | 16 | 242 | 12.9 | 20.9 | 0.00 | 0.00 | 0.00 | 70 | 1022.0 |
| 20260905150319 | 16 | 260 | 8.0 | 19.3 | 0.00 | 0.00 | 0.00 | 70 | 1022.0 |
| 20260905145819 | 16 | 249 | 11.3 | 22.5 | 0.00 | 0.00 | 0.00 | 71 | 1022.1 |
| 20260905145319 | 16 | 246 | 8.0 | 14.5 | 0.00 | 0.00 | 0.00 | 71 | 1022.2 |
| 20260905144820 | 16 | 262 | 6.4 | 14.5 | 0.00 | 0.00 | 0.00 | 72 | 1022.1 |
| 20260905144321 | 16 | 247 | 4.8 | 14.5 | 0.00 | 0.00 | 0.00 | 71 | 1022.1 |
| 20260905143820 | 16 | 264 | 4.8 | 16.1 | 0.00 | 0.00 | 0.00 | 70 | 1022.1 |
| 20260905143319 | 16 | 254 | 8.0 | 20.9 | 0.00 | 0.00 | 0.00 | 69 | 1022.0 |
| 20260905142819 | 16 | 244 | 11.3 | 24.1 | 0.00 | 0.00 | 0.00 | 70 | 1022.0 |
| 20260905141820 | 16 | 258 | 11.3 | 22.5 | 0.00 | 0.00 | 0.00 | 69 | 1021.9 |
| 20260905141320 | 16 | 263 | 9.7 | 19.3 | 0.00 | 0.00 | 0.00 | 70 | 1022.0 |
| 20260905140820 | 16 | 262 | 8.0 | 12.9 | 0.00 | 0.00 | 0.00 | 69 | 1022.0 |
| 20260905140320 | 17 | 275 | 8.0 | 16.1 | 0.00 | 0.00 | 0.00 | 67 | 1022.0 |
| 20260905135820 | 17 | 280 | 4.8 | 14.5 | 0.00 | 0.00 | 0.00 | 67 | 1021.9 |
| 20260905135319 | 17 | 250 | 9.7 | 16.1 | 0.00 | 0.00 | 0.00 | 67 | 1021.8 |
| 20260905134819 | 17 | 254 | 9.7 | 16.1 | 0.00 | 0.00 | 0.00 | 67 | 1021.8 |
| 20260905134319 | 16 | 246 | 12.9 | 27.4 | 0.00 | 0.00 | 0.00 | 68 | 1021.8 |
| 20260905133819 | 16 | 251 | 12.9 | 24.1 | 0.00 | 0.00 | 0.00 | 69 | 1021.8 |
| 20260905133319 | 16 | 255 | 12.9 | 19.3 | 0.00 | 0.00 | 0.00 | 70 | 1021.8 |
| 20260905132820 | 16 | 254 | 6.4 | 16.1 | 0.00 | 0.00 | 0.00 | 71 | 1021.8 |
| 20260905132320 | 16 | 244 | 11.3 | 24.1 | 0.00 | 0.00 | 0.00 | 70 | 1021.7 |
| 20260905131319 | 16 | 245 | 8.0 | 19.3 | 0.00 | 0.00 | 0.00 | 70 | 1021.6 |
| 20260905130820 | 16 | 266 | 9.7 | 22.5 | 0.00 | 0.00 | 0.00 | 71 | 1021.6 |
| 20260905130319 | 16 | 239 | 11.3 | 19.3 | 0.00 | 0.00 | 0.00 | 70 | 1021.6 |
| 20260905125819 | 16 | 241 | 11.3 | 20.9 | 0.00 | 0.00 | 0.00 | 70 | 1021.6 |
| 20260905125319 | 16 | 251 | 8.0 | 16.1 | 0.00 | 0.00 | 0.00 | 73 | 1021.6 |
| 20260905124820 | 16 | 244 | 4.8 | 14.5 | 0.00 | 0.00 | 0.00 | 74 | 1021.6 |
| 20260905124319 | 16 | 241 | 4.8 | 19.3 | 0.00 | 0.00 | 0.00 | 75 | 1021.5 |
| 20260905123819 | 16 | 244 | 8.0 | 16.1 | 0.00 | 0.00 | 0.00 | 74 | 1021.4 |
| 20260905122319 | 16 | 259 | 11.3 | 22.5 | 0.00 | 0.00 | 0.00 | 71 | 1021.5 |
| 20260905121820 | 16 | 245 | 11.3 | 22.5 | 0.00 | 0.00 | 0.00 | 70 | 1021.3 |
| 20260905121321 | 16 | 264 | 9.7 | 19.3 | 0.00 | 0.00 | 0.00 | 71 | 1021.3 |
| 20260905120820 | 16 | 264 | 8.0 | 19.3 | 0.00 | 0.00 | 0.00 | 70 | 1021.2 |
| 20260905120319 | 16 | 250 | 11.3 | 19.3 | 0.00 | 0.00 | 0.00 | 69 | 1021.1 |
| 20260905115820 | 16 | 249 | 9.7 | 24.1 | 0.00 | 0.00 | 0.00 | 69 | 1020.9 |
| 20260905115320 | 17 | 253 | 9.7 | 19.3 | 0.00 | 0.00 | 0.00 | 70 | 1020.9 |
| 20260905114819 | 16 | 240 | 9.7 | 20.9 | 0.00 | 0.00 | 0.00 | 70 | 1020.9 |
| 20260905113319 | 16 | 232 | 11.3 | 24.1 | 0.00 | 0.05 | 0.00 | 73 | 1020.9 |
| 20260905112820 | 16 | 236 | 12.9 | 20.9 | 0.00 | 0.05 | 0.00 | 72 | 1020.9 |
| 20260905111819 | 16 | 247 | 4.8 | 11.3 | 0.00 | 0.05 | 0.00 | 76 | 1020.9 |
| 20260905111319 | 15 | 255 | 8.0 | 19.3 | 0.00 | 0.05 | 0.00 | 76 | 1021.0 |
| 20260905110320 | 16 | 242 | 14.5 | 24.1 | 0.00 | 0.05 | 0.00 | 72 | 1021.0 |
| 20260905105820 | 16 | 245 | 11.3 | 20.9 | 0.00 | 0.05 | 0.00 | 71 | 1020.9 |
| 20260905105320 | 16 | 234 | 11.3 | 19.3 | 0.00 | 0.05 | 0.00 | 71 | 1020.8 |
| 20260905104819 | 16 | 239 | 11.3 | 19.3 | 0.00 | 0.05 | 0.00 | 71 | 1020.7 |
| 20260905102820 | 16 | 222 | 6.4 | 16.1 | 0.00 | 0.05 | 0.00 | 69 | 1020.6 |
| 20260905101320 | 16 | 241 | 11.3 | 22.5 | 0.00 | 0.05 | 0.00 | 70 | 1020.6 |
| 20260905100819 | 16 | 249 | 11.3 | 20.9 | 0.00 | 0.05 | 0.00 | 69 | 1020.4 |
| 20260905100319 | 16 | 269 | 8.0 | 19.3 | 0.00 | 0.05 | 0.00 | 72 | 1020.2 |
| 20260905095819 | 15 | 256 | 11.3 | 22.5 | 0.00 | 0.05 | 0.00 | 72 | 1020.2 |
| 20260905095319 | 15 | 248 | 9.7 | 19.3 | 0.00 | 0.05 | 0.00 | 73 | 1020.2 |
| 20260905094820 | 15 | 264 | 9.7 | 22.5 | 0.00 | 0.05 | 0.00 | 73 | 1020.3 |
| 20260905093819 | 15 | 263 | 11.3 | 19.3 | 0.00 | 0.05 | 0.00 | 73 | 1020.2 |
| 20260905093320 | 15 | 251 | 11.3 | 27.4 | 0.00 | 0.05 | 0.00 | 73 | 1020.1 |
| 20260905092820 | 15 | 245 | 9.7 | 20.9 | 0.00 | 0.05 | 0.00 | 73 | 1020.1 |
| 20260905090819 | 15 | 254 | 11.3 | 20.9 | 0.00 | 0.05 | 0.00 | 74 | 1019.8 |
| 20260905090319 | 15 | 247 | 11.3 | 19.3 | 0.00 | 0.05 | 0.00 | 75 | 1019.7 |
| 20260905085820 | 15 | 248 | 8.0 | 16.1 | 0.00 | 0.05 | 0.00 | 76 | 1019.6 |
| 20260905085319 | 15 | 263 | 12.9 | 22.5 | 0.00 | 0.05 | 0.00 | 76 | 1019.6 |
| 20260905084820 | 14 | 251 | 12.9 | 19.3 | 0.00 | 0.05 | 0.00 | 76 | 1019.6 |
| 20260905083820 | 15 | 244 | 12.9 | 24.1 | 0.00 | 0.05 | 0.00 | 77 | 1019.4 |
| 20260905082820 | 14 | 251 | 11.3 | 25.7 | 0.00 | 0.05 | 0.00 | 79 | 1019.2 |
| 20260905082319 | 14 | 258 | 9.7 | 24.1 | 0.00 | 0.05 | 0.00 | 80 | 1019.2 |
| 20260905081819 | 13 | 248 | 11.3 | 20.9 | 0.00 | 0.05 | 0.00 | 80 | 1019.2 |
| 20260905081319 | 13 | 242 | 9.7 | 16.1 | 0.00 | 0.05 | 0.00 | 81 | 1019.3 |
| 20260905080819 | 13 | 242 | 8.0 | 19.3 | 0.00 | 0.05 | 0.00 | 81 | 1019.3 |
| 20260905080320 | 13 | 240 | 8.0 | 12.9 | 0.00 | 0.05 | 0.00 | 81 | 1019.2 |
| 20260905075819 | 13 | 241 | 8.0 | 14.5 | 0.00 | 0.05 | 0.00 | 81 | 1019.2 |
| 20260905075319 | 13 | 240 | 4.8 | 11.3 | 0.00 | 0.05 | 0.00 | 82 | 1019.1 |
| 20260905074820 | 13 | 251 | 6.4 | 12.9 | 0.00 | 0.05 | 0.00 | 82 | 1019.0 |
| 20260905074319 | 13 | 249 | 8.0 | 19.3 | 0.00 | 0.05 | 0.00 | 82 | 1018.8 |
| 20260905072318 | 13 | 260 | 6.4 | 11.3 | 0.00 | 0.05 | 0.00 | 84 | 1018.6 |
| 20260905071819 | 12 | 249 | 3.2 | 9.7 | 0.00 | 0.05 | 0.00 | 84 | 1018.6 |
| 20260905071319 | 12 | 254 | 4.8 | 11.3 | 0.00 | 0.05 | 0.00 | 84 | 1018.5 |
| 20260905070319 | 12 | 249 | 9.7 | 19.3 | 0.00 | 0.05 | 0.00 | 84 | 1018.5 |
| 20260905065820 | 12 | 250 | 4.8 | 8.0 | 0.00 | 0.05 | 0.00 | 84 | 1018.4 |
| 20260905065320 | 12 | 235 | 4.8 | 9.7 | 0.00 | 0.05 | 0.00 | 84 | 1018.3 |
| 20260905064820 | 12 | 256 | 4.8 | 9.7 | 0.00 | 0.05 | 0.00 | 84 | 1018.2 |
| 20260905063819 | 12 | 252 | 6.4 | 12.9 | 0.00 | 0.05 | 0.00 | 84 | 1018.1 |
| 20260905063318 | 12 | 237 | 4.8 | 12.9 | 0.00 | 0.05 | 0.00 | 84 | 1017.9 |
| 20260905062820 | 12 | 245 | 9.7 | 14.5 | 0.00 | 0.05 | 0.00 | 84 | 1017.9 |
| 20260905062319 | 12 | 244 | 4.8 | 16.1 | 0.00 | 0.05 | 0.00 | 84 | 1017.9 |
| 20260905061819 | 12 | 226 | 3.2 | 8.0 | 0.00 | 0.05 | 0.00 | 84 | 1017.9 |
| 20260905061320 | 12 | 243 | 4.8 | 12.9 | 0.00 | 0.05 | 0.00 | 85 | 1017.7 |
| 20260905060819 | 12 | 275 | 4.8 | 16.1 | 0.00 | 0.05 | 0.00 | 85 | 1017.7 |
| 20260905060320 | 12 | 248 | 3.2 | 16.1 | 0.00 | 0.05 | 0.00 | 85 | 1017.6 |
| 20260905055819 | 12 | 252 | 3.2 | 11.3 | 0.00 | 0.05 | 0.00 | 85 | 1017.5 |
| 20260905055319 | 12 | 251 | 4.8 | 8.0 | 0.00 | 0.05 | 0.00 | 85 | 1017.4 |
| 20260905054819 | 12 | 246 | 3.2 | 9.7 | 0.00 | 0.05 | 0.00 | 84 | 1017.3 |
| 20260905054319 | 12 | 257 | 3.2 | 4.8 | 0.00 | 0.05 | 0.00 | 84 | 1017.3 |
| 20260905053819 | 12 | 246 | 3.2 | 9.7 | 0.00 | 0.05 | 0.00 | 84 | 1017.3 |
| 20260905052819 | 12 | 251 | 8.0 | 14.5 | 0.00 | 0.05 | 0.00 | 83 | 1017.1 |
| 20260905052319 | 12 | 280 | 3.2 | 14.5 | 0.00 | 0.05 | 0.00 | 83 | 1017.1 |
| 20260905051819 | 12 | 258 | 6.4 | 14.5 | 0.00 | 0.05 | 0.00 | 83 | 1017.1 |
| 20260905051319 | 12 | 260 | 4.8 | 12.9 | 0.00 | 0.05 | 0.00 | 81 | 1017.0 |
| 20260905050819 | 12 | 230 | 3.2 | 14.5 | 0.00 | 0.05 | 0.00 | 81 | 1016.9 |
| 20260905050318 | 12 | 269 | 4.8 | 11.3 | 0.00 | 0.05 | 0.00 | 82 | 1016.8 |
| 20260905045819 | 12 | 242 | 1.6 | 12.9 | 0.00 | 0.05 | 0.00 | 82 | 1016.8 |
| 20260905045319 | 12 | 273 | 3.2 | 19.3 | 0.00 | 0.05 | 0.00 | 82 | 1016.7 |
| 20260905044820 | 12 | 268 | 4.8 | 14.5 | 0.00 | 0.05 | 0.00 | 82 | 1016.5 |
| 20260905044319 | 12 | 245 | 8.0 | 16.1 | 0.00 | 0.05 | 0.00 | 83 | 1016.4 |
| 20260905043819 | 12 | 272 | 6.4 | 16.1 | 0.00 | 0.05 | 0.00 | 83 | 1016.3 |
| 20260905043319 | 12 | 245 | 4.8 | 12.9 | 0.00 | 0.05 | 0.00 | 83 | 1016.3 |
| 20260905042819 | 12 | 259 | 11.3 | 19.3 | 0.00 | 0.05 | 0.00 | 83 | 1016.3 |
| 20260905042319 | 12 | 252 | 9.7 | 19.3 | 0.00 | 0.05 | 0.00 | 83 | 1016.2 |
| 20260905041819 | 12 | 254 | 8.0 | 19.3 | 0.00 | 0.05 | 0.00 | 83 | 1016.1 |
| 20260905041319 | 12 | 248 | 9.7 | 19.3 | 0.00 | 0.05 | 0.00 | 82 | 1016.0 |
| 20260905040820 | 12 | 232 | 11.3 | 20.9 | 0.00 | 0.05 | 0.00 | 82 | 1015.8 |
| 20260905040319 | 12 | 229 | 9.7 | 19.3 | 0.00 | 0.05 | 0.00 | 82 | 1015.7 |
| 20260905035819 | 12 | 241 | 9.7 | 19.3 | 0.00 | 0.05 | 0.00 | 82 | 1015.7 |
| 20260905034819 | 12 | 246 | 14.5 | 22.5 | 0.00 | 0.05 | 0.00 | 82 | 1015.5 |
| 20260905034319 | 12 | 255 | 9.7 | 24.1 | 0.00 | 0.05 | 0.00 | 83 | 1015.4 |
| 20260905033319 | 12 | 242 | 11.3 | 32.2 | 0.00 | 0.05 | 0.00 | 82 | 1015.4 |
| 20260905032819 | 12 | 245 | 14.5 | 22.5 | 0.00 | 0.05 | 0.00 | 83 | 1015.3 |
| 20260905032318 | 12 | 270 | 9.7 | 20.9 | 0.00 | 0.05 | 0.00 | 83 | 1015.3 |
| 20260905031319 | 12 | 251 | 9.7 | 19.3 | 0.00 | 0.05 | 0.00 | 83 | 1015.1 |
| 20260905030319 | 12 | 244 | 16.1 | 27.4 | 0.00 | 0.05 | 0.00 | 83 | 1015.0 |
| 20260905025819 | 12 | 251 | 11.3 | 19.3 | 0.00 | 0.05 | 0.00 | 83 | 1014.9 |
| 20260905025319 | 12 | 264 | 11.3 | 19.3 | 0.00 | 0.05 | 0.00 | 83 | 1015.0 |
| 20260905024818 | 12 | 245 | 9.7 | 22.5 | 0.00 | 0.05 | 0.00 | 83 | 1015.0 |
| 20260905024320 | 12 | 267 | 9.7 | 14.5 | 0.00 | 0.05 | 0.00 | 82 | 1015.0 |
| 20260905023319 | 13 | 244 | 9.7 | 19.3 | 0.00 | 0.05 | 0.00 | 82 | 1014.8 |
| 20260905022820 | 13 | 249 | 9.7 | 20.9 | 0.00 | 0.05 | 0.00 | 82 | 1014.8 |
| 20260905022319 | 13 | 250 | 11.3 | 22.5 | 0.00 | 0.05 | 0.00 | 82 | 1014.8 |
| 20260905021819 | 13 | 250 | 9.7 | 22.5 | 0.00 | 0.05 | 0.00 | 82 | 1014.7 |
| 20260905021319 | 13 | 257 | 9.7 | 20.9 | 0.00 | 0.05 | 0.00 | 82 | 1014.6 |
| 20260905020819 | 13 | 248 | 9.7 | 20.9 | 0.00 | 0.05 | 0.00 | 82 | 1014.5 |
| 20260905020318 | 13 | 248 | 12.9 | 20.9 | 0.00 | 0.05 | 0.00 | 82 | 1014.5 |
| 20260905015319 | 13 | 267 | 9.7 | 25.7 | 0.00 | 0.05 | 0.00 | 83 | 1014.3 |
| 20260905014818 | 13 | 244 | 14.5 | 25.7 | 0.00 | 0.05 | 0.00 | 83 | 1014.3 |
| 20260905014320 | 13 | 257 | 11.3 | 22.5 | 0.00 | 0.08 | 0.00 | 83 | 1014.2 |
| 20260905013319 | 13 | 246 | 9.7 | 19.3 | 0.00 | 0.13 | 0.00 | 83 | 1014.1 |
| 20260905012819 | 13 | 248 | 16.1 | 33.8 | 0.00 | 0.15 | 0.00 | 82 | 1014.0 |
| 20260905012318 | 13 | 256 | 16.1 | 24.1 | 0.00 | 0.18 | 0.00 | 81 | 1013.9 |
| 20260905011819 | 13 | 253 | 11.3 | 29.0 | 0.00 | 0.23 | 0.00 | 81 | 1013.8 |
| 20260905011318 | 13 | 246 | 11.3 | 27.4 | 0.00 | 0.23 | 0.00 | 81 | 1013.7 |
| 20260905010820 | 13 | 265 | 11.3 | 24.1 | 0.00 | 0.28 | 0.00 | 81 | 1013.5 |
| 20260905005820 | 13 | 245 | 16.1 | 29.0 | 0.00 | 0.33 | 0.00 | 81 | 1013.4 |
| 20260905004819 | 13 | 246 | 14.5 | 25.7 | 0.00 | 0.36 | 0.00 | 82 | 1013.3 |
| 20260905004319 | 13 | 250 | 19.3 | 32.2 | 0.00 | 0.38 | 0.00 | 83 | 1013.5 |
| 20260905003820 | 13 | 247 | 14.5 | 33.8 | 0.00 | 0.41 | 0.00 | 83 | 1013.5 |
| 20260905002819 | 13 | 258 | 14.5 | 29.0 | 0.00 | 0.43 | 0.00 | 83 | 1013.5 |
| 20260905002318 | 13 | 250 | 14.5 | 46.7 | 0.00 | 0.46 | 0.00 | 83 | 1013.5 |
| 20260905001819 | 13 | 262 | 14.5 | 24.1 | 0.00 | 0.48 | 0.00 | 83 | 1013.4 |
| 20260905001319 | 13 | 254 | 11.3 | 32.2 | 0.00 | 0.51 | 0.00 | 83 | 1013.5 |
| 20260905000818 | 13 | 254 | 19.3 | 35.4 | 0.00 | 0.51 | 0.00 | 82 | 1013.4 |
| 20260905000319 | 13 | 260 | 16.1 | 27.4 | 0.00 | 0.51 | 0.00 | 82 | 1013.4 |
| 20260904235819 | 13 | 258 | 14.5 | 37.0 | 0.00 | 0.51 | 0.00 | 82 | 1013.3 |
| 20260904235319 | 13 | 247 | 12.9 | 29.0 | 0.00 | 0.53 | 0.00 | 82 | 1013.2 |